Regional Weather Roundup
Issued by NWS Sioux Falls, SD

Home | Current Version | Previous Version | Graphics & Text | Print | Product List | Glossary On
Versions: 1 2 3 4 5 6 7 8 9 10 11 12 13 14 15 16 17 18 19 20 21 22 23 24 25 26 27 28 29 30 31 32 33 34 35 36 37 38 39 40 41 42 43 44 45 46 47 48 49 50
896
ASUS43 KFSD 091810
RWRFSD

WEATHER ROUNDUP FOR SE SOUTH DAKOTA/SW MINNESOTA/NW IOWA
NATIONAL WEATHER SERVICE SIOUX FALLS SD
1200 PM CST FRI DEC 09 2016

NOTE: "FAIR" INDICATES FEW OR NO CLOUDS BELOW 12,000 FEET WITH NO
SIGNIFICANT WEATHER AND OR OBSTRUCTIONS TO VISIBILITY.


SDZ038>040-050-052>070-091900-
SOUTHEAST SOUTH DAKOTA

CITY           SKY/WX    TMP DP  RH WIND       PRES   REMARKS
BROOKINGS      CLOUDY     5   0  79 VRB5      30.51F WCI  -4
CHAMBERLAIN    CLOUDY    11   5  76 E7        30.49F WCI   0
6HR MIN TEMP:   3; 6HR MAX TEMP:  11;

HURON          CLOUDY     6  -1  73 VRB3      30.57F
6HR MIN TEMP:  -4; 6HR MAX TEMP:   6;

MADISON        CLOUDY     7   3  85 CALM      30.50F
MITCHELL       LGT SNOW   8   2  76 NE3       30.57F
6HR MIN TEMP:   0; 6HR MAX TEMP:   8; 6HR PCP: TRACE;

SIOUX FALLS    CLOUDY    11   4  73 VRB3      30.53F
6HR MIN TEMP:  -1; 6HR MAX TEMP:  12;

WINNER         LGT SNOW  11   6  81 E13       30.43F WCI  -4
YANKTON        CLOUDY     9   1  72 CALM      30.56F
$$

MNZ071-072-080-081-089-090-097-098-091900-
SOUTHWEST MINNESOTA

CITY           SKY/WX    TMP DP  RH WIND       PRES   REMARKS
FAIRMONT       SUNNY     13   7  77 NW5       30.56F WCI   5
JACKSON        SUNNY     12   7  79 W5        30.52F WCI   4
LUVERNE        CLOUDY    10   3  72 CALM      30.54F
MARSHALL       PTSUNNY    8   1  73 NW7       30.56F WCI  -3
6HR MIN TEMP:  -1; 6HR MAX TEMP:   8;

MONTEVIDEO     CLOUDY     9   3  78 NW5       30.59F WCI   0
PIPESTONE      MOSUNNY    9   1  72 CALM      30.50F
REDWOOD FALLS  LGT SNOW   9   3  77 NW7       30.57F WCI  -2
TRACY          PTSUNNY   11   5  77 NW5       30.54F WCI   3
WINDOM         MOSUNNY   12   7  79 CALM      30.52F
WORTHINGTON    MOSUNNY   11   6  81 NW5       30.52F WCI   3
$$

IAZ001>003-012>014-020>022-031-032-NEZ013-014-SDZ071-091900-
NORTHWEST IOWA

CITY           SKY/WX    TMP DP  RH WIND       PRES   REMARKS
CHEROKEE       SUNNY     15   9  78 W3        30.56F
DENISON        CLOUDY    14   9  79 CALM      30.54F
ESTHERVILLE    MOSUNNY   14   9  80 W7        30.54F WCI   4
LE MARS        CLOUDY    14   5  67 CALM      30.57F
ORANGE CITY    PTSUNNY   12   7  79 CALM      30.53F
SHELDON        CLOUDY    12   9  85 W5        30.52F WCI   4
SIOUX CITY     CLOUDY    14   4  64 CALM      30.59F
6HR MIN TEMP:   4; 6HR MAX TEMP:  16;

SPENCER        SUNNY     15   8  73 W12       30.54F WCI   2
6HR MIN TEMP:   0; 6HR MAX TEMP:  15;

STORM LAKE     SUNNY     12   9  85 W7        30.53F WCI   2
$$

ABBREVIATIONS USED IN REMARKS
   TC - TEMPERATURE IN CELSIUS
  WCI - WIND CHILL INDEX
   HX - HEAT INDEX
  VSB - VISIBILITY





USA.gov is the U.S. government's official web portal to all federal, state and local government web resources and services.